Time,TemperatureF,DewpointF,PressureIn,WindDirection,WindDirectionDegrees,WindSpeedMPH,WindSpeedGustMPH,Humidity,HourlyPrecipIn,Conditions,Clouds,dailyrainin,SoftwareType,DateUTC
2013-07-01 00:01:00,66.0,66.0,29.88,North,-999,-999.0,-999.0,100,0.00,,,0.00,WSDL version 420,2013-07-01 04:01:00,
2013-07-01 00:06:00,66.0,66.0,29.85,North,-999,-999.0,-999.0,100,0.00,,,0.00,WSDL version 420,2013-07-01 04:06:00,
2013-07-01 00:11:00,66.0,66.0,29.85,North,-999,-999.0,-999.0,100,0.00,,,0.00,WSDL version 420,2013-07-01 04:11:00,
2013-07-01 00:16:00,66.0,66.0,29.85,North,-999,-999.0,-999.0,100,0.00,,,0.00,WSDL version 420,2013-07-01 04:16:00,
2013-07-01 00:21:00,66.0,66.0,29.88,North,-999,-999.0,-999.0,100,0.00,,,0.00,WSDL version 420,2013-07-01 04:21:00,
2013-07-01 00:26:00,65.9,65.9,29.88,North,-999,-999.0,-999.0,100,0.00,,,0.00,WSDL version 420,2013-07-01 04:26:00,
2013-07-01 00:31:00,65.8,65.8,29.88,North,-999,-999.0,-999.0,100,0.00,,,0.00,WSDL version 420,2013-07-01 04:31:00,
2013-07-01 00:36:00,65.8,65.8,29.88,North,-999,-999.0,-999.0,100,0.00,,,0.00,WSDL version 420,2013-07-01 04:36:00,
2013-07-01 00:41:00,65.8,65.8,29.88,North,-999,-999.0,-999.0,100,0.00,,,0.00,WSDL version 420,2013-07-01 04:41:00,
2013-07-01 00:46:00,65.7,65.7,29.88,North,-999,-999.0,-999.0,100,0.00,,,0.00,WSDL version 420,2013-07-01 04:46:00,
2013-07-01 00:51:00,65.7,65.7,29.88,North,-999,-999.0,-999.0,100,0.00,,,0.00,WSDL version 420,2013-07-01 04:51:00,
2013-07-01 00:56:00,65.7,65.7,29.88,North,-999,-999.0,-999.0,100,0.00,,,0.00,WSDL version 420,2013-07-01 04:56:00,
2013-07-01 01:01:00,65.7,65.7,29.88,North,-999,-999.0,-999.0,100,0.00,,,0.00,WSDL version 420,2013-07-01 05:01:00,
2013-07-01 01:06:00,65.7,65.7,29.88,North,-999,-999.0,-999.0,100,0.00,,,0.00,WSDL version 420,2013-07-01 05:06:00,
2013-07-01 01:11:00,65.7,65.7,29.88,North,-999,-999.0,-999.0,100,0.00,,,0.00,WSDL version 420,2013-07-01 05:11:00,
2013-07-01 01:16:00,65.7,65.7,29.88,North,-999,-999.0,-999.0,100,0.00,,,0.00,WSDL version 420,2013-07-01 05:16:00,
2013-07-01 01:21:00,65.7,65.7,29.88,North,-999,-999.0,-999.0,100,0.00,,,0.00,WSDL version 420,2013-07-01 05:21:00,
2013-07-01 01:26:00,65.7,65.7,29.88,North,-999,-999.0,-999.0,100,0.00,,,0.00,WSDL version 420,2013-07-01 05:26:00,
2013-07-01 01:31:00,65.8,65.7,29.88,North,-999,-999.0,-999.0,100,0.00,,,0.00,WSDL version 420,2013-07-01 05:31:00,
2013-07-01 01:41:00,65.8,65.8,29.88,North,-999,-999.0,-999.0,100,0.00,,,0.00,WSDL version 420,2013-07-01 05:41:00,
2013-07-01 01:46:00,65.8,65.8,29.88,North,-999,-999.0,-999.0,100,0.00,,,0.00,WSDL version 420,2013-07-01 05:46:00,
2013-07-01 01:51:00,65.8,65.8,29.88,North,-999,-999.0,-999.0,100,0.00,,,0.00,WSDL version 420,2013-07-01 05:51:00,
2013-07-01 01:56:00,65.8,65.8,29.88,North,-999,-999.0,-999.0,100,-99.99,,,-99.99,WSDL version 420,2013-07-01 05:56:00,
2013-07-01 02:01:00,65.8,65.8,29.88,North,-999,-999.0,-999.0,100,0.00,,,0.00,WSDL version 420,2013-07-01 06:01:00,
2013-07-01 02:06:00,65.8,65.8,29.88,South,185,0.0,0.0,100,0.00,,,0.00,WSDL version 420,2013-07-01 06:06:00,
2013-07-01 02:11:00,65.8,65.8,29.88,SW,230,1.9,2.5,100,0.00,,,0.00,WSDL version 420,2013-07-01 06:11:00,
2013-07-01 02:16:00,65.8,65.8,29.88,SSW,207,0.3,2.5,100,0.00,,,0.00,WSDL version 420,2013-07-01 06:16:00,
2013-07-01 02:21:00,65.8,65.8,29.88,SSW,207,0.0,1.1,100,0.00,,,0.00,WSDL version 420,2013-07-01 06:21:00,
2013-07-01 02:26:00,65.8,65.8,29.88,SSW,207,0.0,0.0,100,0.00,,,0.00,WSDL version 420,2013-07-01 06:26:00,
2013-07-01 02:31:00,65.8,65.8,29.88,SSW,207,0.0,0.0,100,0.00,,,0.00,WSDL version 420,2013-07-01 06:31:00,
2013-07-01 02:36:00,65.8,65.8,29.88,SSW,207,0.0,0.0,100,0.00,,,0.00,WSDL version 420,2013-07-01 06:36:00,
2013-07-01 02:41:00,65.8,65.8,29.88,SSW,207,0.0,0.0,100,0.00,,,0.00,WSDL version 420,2013-07-01 06:41:00,
2013-07-01 02:46:00,65.8,65.8,29.88,SSW,207,0.0,0.0,100,0.00,,,0.00,WSDL version 420,2013-07-01 06:46:00,
2013-07-01 02:51:00,65.8,65.8,29.88,SSW,207,0.0,0.0,100,0.00,,,0.00,WSDL version 420,2013-07-01 06:51:00,
2013-07-01 02:56:00,65.8,65.8,29.88,SSW,207,0.0,0.0,100,0.00,,,0.00,WSDL version 420,2013-07-01 06:56:00,
2013-07-01 03:01:00,65.8,65.8,29.88,SSW,207,0.0,0.0,100,0.00,,,0.00,WSDL version 420,2013-07-01 07:01:00,
2013-07-01 03:06:00,65.8,65.8,29.88,SSW,207,0.0,0.0,100,0.00,,,0.00,WSDL version 420,2013-07-01 07:06:00,
2013-07-01 03:11:00,65.8,65.7,29.88,SSW,207,0.0,0.0,100,0.00,,,0.00,WSDL version 420,2013-07-01 07:11:00,
2013-07-01 03:16:00,65.7,65.7,29.88,SSW,207,0.0,0.0,100,0.00,,,0.00,WSDL version 420,2013-07-01 07:16:00,
2013-07-01 03:21:00,65.6,65.6,29.88,SSW,207,0.0,0.0,100,0.00,,,0.00,WSDL version 420,2013-07-01 07:21:00,
2013-07-01 03:31:00,65.5,65.5,29.88,SSW,207,0.0,1.6,100,0.00,,,0.00,WSDL version 420,2013-07-01 07:31:00,
2013-07-01 03:36:00,65.5,65.5,29.88,SSW,207,0.0,0.9,100,0.00,,,0.00,WSDL version 420,2013-07-01 07:36:00,
2013-07-01 03:41:00,65.5,65.5,29.88,SSW,207,0.0,0.9,100,0.00,,,0.00,WSDL version 420,2013-07-01 07:41:00,
2013-07-01 03:46:00,65.5,65.5,29.88,SSW,207,0.0,0.0,100,0.00,,,0.00,WSDL version 420,2013-07-01 07:46:00,
2013-07-01 03:51:00,65.5,65.5,29.88,SSW,207,0.0,0.0,100,0.00,,,0.00,WSDL version 420,2013-07-01 07:51:00,
2013-07-01 03:56:00,65.7,65.7,29.88,SSW,207,0.0,0.0,100,0.00,,,0.00,WSDL version 420,2013-07-01 07:56:00,
2013-07-01 04:01:00,65.7,65.7,29.88,SSW,207,0.0,0.0,100,0.00,,,0.00,WSDL version 420,2013-07-01 08:01:00,
2013-07-01 04:06:00,65.7,65.7,29.91,SSW,207,0.0,0.0,100,0.00,,,0.00,WSDL version 420,2013-07-01 08:06:00,
2013-07-01 04:11:00,65.7,65.7,29.91,SSW,207,0.0,0.0,100,0.00,,,0.00,WSDL version 420,2013-07-01 08:11:00,
2013-07-01 04:16:00,65.7,65.7,29.91,South,185,0.4,0.9,100,0.00,,,0.00,WSDL version 420,2013-07-01 08:16:00,
2013-07-01 04:21:00,65.7,65.7,29.88,South,185,0.0,0.9,100,0.00,,,0.00,WSDL version 420,2013-07-01 08:21:00,
2013-07-01 04:26:00,65.7,65.7,29.88,South,185,0.0,0.0,100,0.00,,,0.00,WSDL version 420,2013-07-01 08:26:00,
2013-07-01 04:31:00,65.7,65.7,29.88,South,185,0.0,0.0,100,0.00,,,0.00,WSDL version 420,2013-07-01 08:31:00,
2013-07-01 04:36:00,65.7,65.7,29.91,South,185,0.0,0.0,100,0.00,,,0.00,WSDL version 420,2013-07-01 08:36:00,
2013-07-01 04:41:00,65.7,65.7,29.91,South,185,0.0,0.0,100,0.00,,,0.00,WSDL version 420,2013-07-01 08:41:00,
2013-07-01 04:46:00,65.7,65.7,29.91,South,185,0.0,0.0,100,0.00,,,0.00,WSDL version 420,2013-07-01 08:46:00,
2013-07-01 04:51:00,65.7,65.7,29.91,South,185,0.0,0.0,100,0.00,,,0.00,WSDL version 420,2013-07-01 08:51:00,
2013-07-01 04:56:00,65.7,65.7,29.91,South,185,0.0,0.0,100,0.00,,,0.00,WSDL version 420,2013-07-01 08:56:00,
2013-07-01 05:01:00,65.7,65.7,29.91,South,185,0.0,0.0,100,0.00,,,0.00,WSDL version 420,2013-07-01 09:01:00,
2013-07-01 05:06:00,65.7,65.7,29.91,South,185,0.0,0.0,100,0.00,,,0.00,WSDL version 420,2013-07-01 09:06:00,
2013-07-01 05:11:00,65.7,65.7,29.91,South,185,0.0,0.0,100,0.00,,,0.00,WSDL version 420,2013-07-01 09:11:00,
2013-07-01 05:16:00,65.6,65.6,29.91,SSW,205,0.0,0.0,100,0.00,,,0.00,WSDL version 420,2013-07-01 09:16:00,
2013-07-01 05:21:00,65.5,65.5,29.91,West,275,0.0,1.6,100,0.00,,,0.00,WSDL version 420,2013-07-01 09:21:00,
2013-07-01 05:26:00,65.4,65.4,29.91,North,5,2.0,2.7,100,0.00,,,0.00,WSDL version 420,2013-07-01 09:26:00,
2013-07-01 05:31:00,65.3,65.3,29.91,North,5,0.2,2.7,100,0.00,,,0.00,WSDL version 420,2013-07-01 09:31:00,
2013-07-01 06:14:00,65.3,65.3,29.91,North,5,0.0,0.0,100,0.00,,,0.00,WSDL version 420,2013-07-01 10:14:00,
2013-07-01 06:24:00,65.5,65.5,29.91,North,5,0.0,0.0,100,0.00,,,0.00,WSDL version 420,2013-07-01 10:24:00,
2013-07-01 06:29:00,65.5,65.5,29.91,North,5,0.0,0.0,100,0.00,,,0.00,WSDL version 420,2013-07-01 10:29:00,
2013-07-01 06:34:00,65.5,65.5,29.91,North,5,0.0,0.0,100,0.00,,,0.00,WSDL version 420,2013-07-01 10:34:00,
2013-07-01 06:39:00,65.4,65.4,29.91,North,5,0.0,0.0,100,0.00,,,0.00,WSDL version 420,2013-07-01 10:39:00,
2013-07-01 06:53:00,65.3,65.3,29.94,North,5,0.0,0.0,100,0.00,,,0.00,WSDL version 420,2013-07-01 10:53:00,
2013-07-01 06:58:00,65.4,65.4,29.94,North,5,0.0,0.0,100,0.00,,,0.00,WSDL version 420,2013-07-01 10:58:00,
2013-07-01 07:03:00,65.5,65.5,29.94,North,5,0.0,0.0,100,0.00,,,0.00,WSDL version 420,2013-07-01 11:03:00,
2013-07-01 07:08:00,65.5,65.5,29.94,North,5,0.0,0.0,100,0.00,,,0.00,WSDL version 420,2013-07-01 11:08:00,
2013-07-01 07:13:00,65.5,65.5,29.94,North,5,0.0,0.0,100,0.00,,,0.00,WSDL version 420,2013-07-01 11:13:00,
2013-07-01 07:18:00,65.5,65.5,29.94,North,5,0.0,0.0,100,0.00,,,0.00,WSDL version 420,2013-07-01 11:18:00,
2013-07-01 07:23:00,65.7,65.7,29.94,North,5,0.0,0.0,100,0.00,,,0.00,WSDL version 420,2013-07-01 11:23:00,
2013-07-01 07:28:00,65.7,65.7,29.94,North,5,1.5,2.0,100,0.00,,,0.00,WSDL version 420,2013-07-01 11:28:00,
2013-07-01 07:33:00,65.7,65.7,29.97,North,5,0.9,2.0,100,0.00,,,0.00,WSDL version 420,2013-07-01 11:33:00,
2013-07-01 07:43:00,65.7,65.7,29.97,North,5,0.0,1.1,100,0.00,,,0.00,WSDL version 420,2013-07-01 11:43:00,
2013-07-01 07:48:00,65.8,65.8,29.97,North,5,0.0,0.0,100,0.00,,,0.00,WSDL version 420,2013-07-01 11:48:00,
2013-07-01 07:53:00,65.8,65.8,29.97,North,5,0.0,0.0,100,0.00,,,0.00,WSDL version 420,2013-07-01 11:53:00,
2013-07-01 07:58:00,66.0,66.0,29.97,North,5,0.0,0.0,100,0.00,,,0.00,WSDL version 420,2013-07-01 11:58:00,
2013-07-01 08:03:00,66.0,66.0,29.97,North,5,0.0,0.0,100,0.00,,,0.00,WSDL version 420,2013-07-01 12:03:00,
2013-07-01 08:08:00,66.0,66.0,29.97,North,5,0.0,0.0,100,0.00,,,0.00,WSDL version 420,2013-07-01 12:08:00,
2013-07-01 08:13:00,66.0,66.0,29.97,North,0,0.0,0.0,100,0.00,,,0.00,WSDL version 420,2013-07-01 12:13:00,
2013-07-01 08:18:00,66.0,66.0,29.97,North,-999,-999.0,-999.0,100,0.00,,,0.00,WSDL version 420,2013-07-01 12:18:00,
2013-07-01 08:23:00,66.2,66.2,29.97,North,-999,-999.0,-999.0,100,0.00,,,0.00,WSDL version 420,2013-07-01 12:23:00,
2013-07-01 08:28:00,66.2,66.2,29.97,North,-999,-999.0,-999.0,100,0.00,,,0.00,WSDL version 420,2013-07-01 12:28:00,
2013-07-01 08:38:00,66.2,66.2,29.97,North,-999,-999.0,-999.0,100,0.00,,,0.00,WSDL version 420,2013-07-01 12:38:00,
2013-07-01 08:43:00,66.2,66.2,29.97,North,-999,-999.0,-999.0,100,0.00,,,0.00,WSDL version 420,2013-07-01 12:43:00,
2013-07-01 08:48:00,66.4,66.4,29.97,North,-999,-999.0,-999.0,100,0.00,,,0.00,WSDL version 420,2013-07-01 12:48:00,
2013-07-01 08:53:00,66.4,66.4,29.97,North,-999,-999.0,-999.0,100,0.00,,,0.00,WSDL version 420,2013-07-01 12:53:00,
2013-07-01 08:58:00,66.6,66.6,29.97,North,-999,-999.0,-999.0,100,0.00,,,0.00,WSDL version 420,2013-07-01 12:58:00,
2013-07-01 09:03:00,66.6,66.6,29.97,North,-999,-999.0,-999.0,100,0.00,,,0.00,WSDL version 420,2013-07-01 13:03:00,
2013-07-01 09:08:00,66.7,66.7,29.97,North,-999,-999.0,-999.0,100,0.00,,,0.00,WSDL version 420,2013-07-01 13:08:00,
2013-07-01 09:13:00,66.7,66.7,29.97,North,-999,-999.0,-999.0,100,0.00,,,0.00,WSDL version 420,2013-07-01 13:13:00,
2013-07-01 09:18:00,67.0,67.0,29.97,North,-999,-999.0,-999.0,100,0.00,,,0.00,WSDL version 420,2013-07-01 13:18:00,
2013-07-01 09:23:00,67.1,67.1,29.97,NNE,27,0.9,0.0,100,0.00,,,0.00,WSDL version 420,2013-07-01 13:23:00,
2013-07-01 09:32:00,67.5,67.5,29.97,NNE,27,0.9,0.0,100,0.00,,,0.00,WSDL version 420,2013-07-01 13:32:00,
2013-07-01 09:37:00,67.6,67.6,29.97,North,-999,-999.0,-999.0,100,0.00,,,0.00,WSDL version 420,2013-07-01 13:37:00,
2013-07-01 09:47:00,67.8,67.8,29.97,NNE,27,0.0,0.0,100,0.00,,,0.00,WSDL version 420,2013-07-01 13:47:00,
2013-07-01 09:52:00,67.8,67.8,29.97,NNE,27,0.0,0.0,100,0.00,,,0.00,WSDL version 420,2013-07-01 13:52:00,
2013-07-01 09:57:00,67.8,67.8,29.97,NNE,27,0.0,0.0,100,0.00,,,0.00,WSDL version 420,2013-07-01 13:57:00,
2013-07-01 10:02:00,67.8,67.8,29.97,North,-999,-999.0,-999.0,100,0.00,,,0.00,WSDL version 420,2013-07-01 14:02:00,
2013-07-01 10:07:00,67.8,67.8,29.97,North,-999,-999.0,-999.0,100,0.00,,,0.00,WSDL version 420,2013-07-01 14:07:00,
2013-07-01 10:12:00,68.0,68.0,29.97,North,-999,-999.0,-999.0,100,0.00,,,0.00,WSDL version 420,2013-07-01 14:12:00,
2013-07-01 10:22:00,68.0,68.0,29.97,North,-999,-999.0,-999.0,100,0.00,,,0.00,WSDL version 420,2013-07-01 14:22:00,
2013-07-01 10:27:00,68.0,68.0,29.97,North,-999,-999.0,-999.0,100,0.00,,,0.00,WSDL version 420,2013-07-01 14:27:00,
2013-07-01 10:32:00,68.0,68.0,29.97,NE,50,0.0,0.0,100,0.00,,,0.00,WSDL version 420,2013-07-01 14:32:00,
2013-07-01 10:37:00,68.1,68.1,29.97,NE,50,0.0,0.0,100,0.00,,,0.00,WSDL version 420,2013-07-01 14:37:00,
2013-07-01 10:42:00,68.2,68.2,29.97,NE,50,0.0,0.0,100,0.00,,,0.00,WSDL version 420,2013-07-01 14:42:00,
2013-07-01 10:52:00,68.4,68.4,-100.00,NE,50,1.3,0.0,100,0.00,,,0.00,WSDL version 420,2013-07-01 14:52:00,
2013-07-01 11:02:00,68.4,68.4,29.94,North,-999,-999.0,-999.0,100,0.00,,,0.00,WSDL version 420,2013-07-01 15:02:00,
2013-07-01 11:08:00,68.5,68.5,29.97,North,-999,-999.0,-999.0,100,0.00,,,0.00,WSDL version 420,2013-07-01 15:08:00,
2013-07-01 11:13:00,68.8,68.8,29.97,North,-999,-999.0,-999.0,100,0.00,,,0.00,WSDL version 420,2013-07-01 15:13:00,
2013-07-01 11:23:00,69.0,68.9,29.97,North,5,2.9,2.9,99,0.00,,,0.00,WSDL version 420,2013-07-01 15:23:00,
2013-07-01 11:28:00,68.9,68.6,29.97,North,5,0.9,2.2,99,0.00,,,0.00,WSDL version 420,2013-07-01 15:28:00,
2013-07-01 11:33:00,68.9,68.6,29.97,North,0,0.0,2.2,99,0.00,,,0.00,WSDL version 420,2013-07-01 15:33:00,
2013-07-01 11:38:00,68.7,68.1,29.97,North,5,0.0,0.9,98,0.00,,,0.00,WSDL version 420,2013-07-01 15:38:00,
2013-07-01 11:43:00,68.7,68.1,29.97,North,5,0.0,0.9,98,0.00,,,0.00,WSDL version 420,2013-07-01 15:43:00,
2013-07-01 11:48:00,68.7,68.1,29.97,North,5,0.0,0.0,98,0.00,,,0.00,WSDL version 420,2013-07-01 15:48:00,
2013-07-01 11:53:00,68.9,68.3,29.97,North,5,0.0,0.0,98,0.00,,,0.00,WSDL version 420,2013-07-01 15:53:00,
2013-07-01 12:03:00,68.9,68.6,29.97,North,5,0.0,0.0,99,0.00,,,0.00,WSDL version 420,2013-07-01 16:03:00,
2013-07-01 12:08:00,69.0,68.7,29.97,North,-999,-999.0,-999.0,99,0.00,,,0.00,WSDL version 420,2013-07-01 16:08:00,
2013-07-01 12:13:00,69.1,68.6,29.97,North,-999,-999.0,-999.0,98,0.00,,,0.00,WSDL version 420,2013-07-01 16:13:00,
2013-07-01 12:18:00,69.1,68.4,29.97,NW,320,0.3,1.6,98,0.00,,,0.00,WSDL version 420,2013-07-01 16:18:00,
2013-07-01 12:23:00,69.2,68.5,29.97,NNW,342,1.1,2.7,98,0.00,,,0.00,WSDL version 420,2013-07-01 16:23:00,
2013-07-01 12:28:00,69.3,68.5,29.97,NNW,342,1.1,2.7,97,0.00,,,0.00,WSDL version 420,2013-07-01 16:28:00,
2013-07-01 12:33:00,69.3,68.3,29.97,NNW,342,1.1,2.0,97,0.00,,,0.00,WSDL version 420,2013-07-01 16:33:00,
2013-07-01 12:38:00,69.3,68.4,29.97,North,-999,-999.0,-999.0,97,0.00,,,0.00,WSDL version 420,2013-07-01 16:38:00,
2013-07-01 12:43:00,69.4,68.5,29.97,North,-999,-999.0,-999.0,97,0.00,,,0.00,WSDL version 420,2013-07-01 16:43:00,
2013-07-01 12:48:00,69.6,68.6,29.97,North,-999,-999.0,-999.0,97,0.00,,,0.00,WSDL version 420,2013-07-01 16:48:00,
2013-07-01 12:53:00,69.7,68.7,29.97,North,-999,-999.0,-999.0,97,0.00,,,0.00,WSDL version 420,2013-07-01 16:53:00,
2013-07-01 12:58:00,69.8,68.6,29.97,North,-999,-999.0,-999.0,96,0.00,,,0.00,WSDL version 420,2013-07-01 16:58:00,
2013-07-01 13:03:00,69.8,68.5,29.97,North,-999,-999.0,-999.0,96,0.00,,,0.00,WSDL version 420,2013-07-01 17:03:00,
2013-07-01 13:08:00,69.7,68.4,29.97,North,-999,-999.0,-999.0,96,0.00,,,0.00,WSDL version 420,2013-07-01 17:08:00,
2013-07-01 13:13:00,69.8,68.5,29.97,North,-999,-999.0,-999.0,96,0.00,,,0.00,WSDL version 420,2013-07-01 17:13:00,
2013-07-01 13:18:00,69.8,68.5,29.94,North,-999,-999.0,-999.0,96,0.00,,,0.00,WSDL version 420,2013-07-01 17:18:00,
2013-07-01 13:28:00,70.0,68.7,29.94,North,350,1.3,3.4,96,0.00,,,0.00,WSDL version 420,2013-07-01 17:28:00,
2013-07-01 13:33:00,70.1,68.8,29.97,NNW,342,1.1,3.4,96,0.00,,,0.00,WSDL version 420,2013-07-01 17:33:00,
2013-07-01 13:38:00,70.3,68.6,29.97,North,5,3.8,3.8,94,0.00,,,0.00,WSDL version 420,2013-07-01 17:38:00,
2013-07-01 13:43:00,70.3,68.7,29.97,NNE,27,1.6,3.4,94,-99.99,,,-99.99,WSDL version 420,2013-07-01 17:43:00,
2013-07-01 13:48:00,70.2,68.5,29.94,North,10,2.0,2.5,94,0.00,,,0.00,WSDL version 420,2013-07-01 17:48:00,
2013-07-01 13:58:00,70.2,68.5,29.94,NW,308,2.9,3.8,94,0.00,,,0.00,WSDL version 420,2013-07-01 17:58:00,
2013-07-01 14:03:00,70.2,68.5,30.00,WSW,252,2.9,3.8,94,0.00,,,0.00,WSDL version 420,2013-07-01 18:03:00,
2013-07-01 14:08:00,70.2,68.5,30.00,NW,320,2.9,6.7,94,0.00,,,0.00,WSDL version 420,2013-07-01 18:08:00,
2013-07-01 14:13:00,70.3,68.6,30.00,NW,320,2.9,6.7,94,0.00,,,0.00,WSDL version 420,2013-07-01 18:13:00,
2013-07-01 14:22:00,70.6,68.8,29.97,WNW,294,1.8,6.7,93,0.00,,,0.00,WSDL version 420,2013-07-01 18:22:00,
2013-07-01 14:27:00,70.8,68.9,29.97,WSW,257,1.5,2.9,93,0.00,,,0.00,WSDL version 420,2013-07-01 18:27:00,
2013-07-01 14:32:00,71.0,68.9,29.97,WSW,258,1.9,4.9,93,0.00,,,0.00,WSDL version 420,2013-07-01 18:32:00,
2013-07-01 14:42:00,71.2,68.2,29.97,NNW,347,2.8,6.0,90,0.00,,,0.00,WSDL version 420,2013-07-01 18:42:00,
2013-07-01 14:52:00,71.4,68.1,29.94,WNW,300,3.7,6.5,89,0.00,,,0.00,WSDL version 420,2013-07-01 18:52:00,
2013-07-01 14:57:00,71.4,67.7,29.94,WNW,287,3.7,6.5,88,0.00,,,0.00,WSDL version 420,2013-07-01 18:57:00,
2013-07-01 15:02:00,71.4,67.3,29.94,WNW,297,2.6,6.0,88,0.00,,,0.00,WSDL version 420,2013-07-01 19:02:00,
2013-07-01 15:09:00,71.4,67.1,29.97,WNW,300,1.8,3.6,86,0.00,,,0.00,WSDL version 420,2013-07-01 19:09:00,
2013-07-01 15:15:00,71.4,66.9,29.97,WNW,300,3.1,5.6,86,-99.99,,,-99.99,WSDL version 420,2013-07-01 19:15:00,
2013-07-01 15:20:00,71.5,67.0,29.97,WNW,300,2.3,5.6,86,0.00,,,0.00,WSDL version 420,2013-07-01 19:20:00,
2013-07-01 15:30:00,71.6,67.0,29.97,NNW,347,2.8,4.9,86,0.00,,,0.00,WSDL version 420,2013-07-01 19:30:00,
2013-07-01 15:40:00,71.9,67.4,29.97,North,353,1.9,4.3,86,0.00,,,0.00,WSDL version 420,2013-07-01 19:40:00,
2013-07-01 15:50:00,72.1,67.5,29.97,WSW,252,0.0,2.7,84,0.00,,,0.00,WSDL version 420,2013-07-01 19:50:00,
2013-07-01 15:55:00,72.1,67.6,29.97,North,5,1.1,1.3,86,0.00,,,0.00,WSDL version 420,2013-07-01 19:55:00,
2013-07-01 16:00:00,72.0,67.0,29.97,NNE,27,2.2,2.2,84,0.00,,,0.00,WSDL version 420,2013-07-01 20:00:00,
2013-07-01 16:06:00,71.9,66.6,29.97,NNE,27,0.0,1.3,83,0.00,,,0.00,WSDL version 420,2013-07-01 20:06:00,
2013-07-01 16:11:00,71.8,66.7,29.97,NNE,27,0.0,0.0,83,0.00,,,0.00,WSDL version 420,2013-07-01 20:11:00,
2013-07-01 16:16:00,71.8,66.6,29.97,North,5,1.0,5.6,83,0.00,,,0.00,WSDL version 420,2013-07-01 20:16:00,
2013-07-01 16:21:00,71.7,66.3,29.97,West,275,3.4,5.6,83,0.00,,,0.00,WSDL version 420,2013-07-01 20:21:00,
2013-07-01 16:31:00,71.4,65.7,29.97,NNW,342,3.2,3.2,82,0.00,,,0.00,WSDL version 420,2013-07-01 20:31:00,
2013-07-01 16:36:00,71.2,65.4,29.97,NNW,342,2.7,7.2,81,0.00,,,0.00,WSDL version 420,2013-07-01 20:36:00,
2013-07-01 16:41:00,71.0,65.0,29.97,WNW,297,2.5,7.2,81,0.00,,,0.00,WSDL version 420,2013-07-01 20:41:00,
2013-07-01 16:51:00,70.6,65.5,29.94,West,275,2.9,4.0,83,0.00,,,0.00,WSDL version 420,2013-07-01 20:51:00,
2013-07-01 16:56:00,70.4,65.5,29.94,West,275,2.9,4.0,84,0.00,,,0.00,WSDL version 420,2013-07-01 20:56:00,
2013-07-01 17:01:00,70.3,65.4,29.94,North,-999,-999.0,-999.0,84,0.00,,,0.00,WSDL version 420,2013-07-01 21:01:00,
2013-07-01 17:06:00,70.1,65.6,29.94,West,275,4.9,5.6,86,0.00,,,0.00,WSDL version 420,2013-07-01 21:06:00,
2013-07-01 17:11:00,70.0,65.6,29.94,West,263,2.2,5.6,87,0.00,,,0.00,WSDL version 420,2013-07-01 21:11:00,
2013-07-01 17:16:00,70.0,65.8,29.94,West,269,4.1,5.6,87,0.00,,,0.00,WSDL version 420,2013-07-01 21:16:00,
2013-07-01 17:21:00,70.0,65.7,29.97,WNW,297,3.8,6.0,86,0.00,,,0.00,WSDL version 420,2013-07-01 21:21:00,
2013-07-01 17:31:00,69.8,65.1,29.97,WNW,297,4.0,6.0,84,0.00,,,0.00,WSDL version 420,2013-07-01 21:31:00,
2013-07-01 17:36:00,69.6,65.1,29.97,NW,320,3.4,5.6,86,0.00,,,0.00,WSDL version 420,2013-07-01 21:36:00,
2013-07-01 17:41:00,69.6,65.1,29.97,WSW,252,2.5,5.6,86,0.00,,,0.00,WSDL version 420,2013-07-01 21:41:00,
2013-07-01 17:46:00,69.4,64.9,29.97,WNW,297,3.8,3.8,86,0.00,,,0.00,WSDL version 420,2013-07-01 21:46:00,
2013-07-01 17:51:00,69.4,64.9,29.97,NW,308,4.3,5.8,86,0.00,,,0.00,WSDL version 420,2013-07-01 21:51:00,
2013-07-01 17:56:00,69.3,64.4,29.97,West,260,3.5,5.8,84,0.00,,,0.00,WSDL version 420,2013-07-01 21:56:00,
2013-07-01 18:06:00,69.3,64.4,29.97,NW,314,3.1,3.8,84,0.00,,,0.00,WSDL version 420,2013-07-01 22:06:00,
2013-07-01 18:11:00,69.1,64.2,29.97,WNW,297,2.1,3.6,84,0.00,,,0.00,WSDL version 420,2013-07-01 22:11:00,
2013-07-01 18:16:00,69.0,64.3,29.97,WNW,297,2.0,3.1,86,0.00,,,0.00,WSDL version 420,2013-07-01 22:16:00,
2013-07-01 18:21:00,68.9,64.4,29.97,WSW,252,1.6,2.7,86,0.00,,,0.00,WSDL version 420,2013-07-01 22:21:00,
2013-07-01 18:26:00,68.9,64.4,29.97,WNW,297,3.1,4.9,86,0.00,,,0.00,WSDL version 420,2013-07-01 22:26:00,
2013-07-01 18:31:00,68.7,64.1,29.97,West,275,2.9,4.9,84,0.00,,,0.00,WSDL version 420,2013-07-01 22:31:00,
2013-07-01 18:36:00,68.7,63.8,29.97,West,275,2.9,3.8,84,0.00,,,0.00,WSDL version 420,2013-07-01 22:36:00,
2013-07-01 18:41:00,68.5,63.7,29.97,West,275,2.0,3.8,84,0.00,,,0.00,WSDL version 420,2013-07-01 22:41:00,
2013-07-01 18:46:00,68.5,63.9,29.97,West,275,2.0,2.0,86,0.00,,,0.00,WSDL version 420,2013-07-01 22:46:00,
2013-07-01 18:51:00,68.3,63.8,29.97,West,275,2.0,0.0,86,0.00,,,0.00,WSDL version 420,2013-07-01 22:51:00,
2013-07-01 18:56:00,68.1,63.6,29.97,North,-999,-999.0,-999.0,86,0.00,,,0.00,WSDL version 420,2013-07-01 22:56:00,
2013-07-01 19:06:00,67.8,63.7,29.97,North,-999,-999.0,-999.0,87,0.00,,,0.00,WSDL version 420,2013-07-01 23:06:00,
2013-07-01 19:12:00,67.6,63.5,29.97,North,-999,-999.0,-999.0,87,0.00,,,0.00,WSDL version 420,2013-07-01 23:12:00,
2013-07-01 19:17:00,67.5,63.4,29.97,West,275,3.6,3.6,87,0.00,,,0.00,WSDL version 420,2013-07-01 23:17:00,
2013-07-01 19:27:00,67.3,63.2,30.00,WNW,286,2.3,4.9,87,0.00,,,0.00,WSDL version 420,2013-07-01 23:27:00,
2013-07-01 19:32:00,67.3,63.3,30.00,NW,325,1.1,3.1,88,0.00,,,0.00,WSDL version 420,2013-07-01 23:32:00,
2013-07-01 19:37:00,67.1,63.4,29.97,NNW,342,1.1,3.1,88,0.00,,,0.00,WSDL version 420,2013-07-01 23:37:00,
2013-07-01 19:42:00,67.1,63.3,29.97,NNW,342,1.1,3.1,88,0.00,,,0.00,WSDL version 420,2013-07-01 23:42:00,
2013-07-01 19:47:00,66.9,63.2,29.97,North,0,0.0,3.1,88,0.00,,,0.00,WSDL version 420,2013-07-01 23:47:00,
2013-07-01 19:57:00,66.7,63.4,30.00,North,-999,-999.0,-999.0,89,0.00,,,0.00,WSDL version 420,2013-07-01 23:57:00,
2013-07-01 20:02:00,66.7,63.4,30.00,North,-999,-999.0,-999.0,89,0.00,,,0.00,WSDL version 420,2013-07-02 00:02:00,
2013-07-01 20:07:00,66.6,63.2,30.00,North,-999,-999.0,-999.0,89,0.00,,,0.00,WSDL version 420,2013-07-02 00:07:00,
2013-07-01 20:12:00,66.5,63.1,30.00,North,-999,-999.0,-999.0,89,0.00,,,0.00,WSDL version 420,2013-07-02 00:12:00,
2013-07-01 20:17:00,66.4,63.0,30.00,North,-999,-999.0,-999.0,89,0.00,,,0.00,WSDL version 420,2013-07-02 00:17:00,
2013-07-01 20:22:00,66.4,62.9,30.00,NW,320,2.9,3.8,89,0.00,,,0.00,WSDL version 420,2013-07-02 00:22:00,
2013-07-01 20:32:00,66.4,62.8,30.00,WNW,297,4.3,6.5,88,0.00,,,0.00,WSDL version 420,2013-07-02 00:32:00,
2013-07-01 20:37:00,66.4,62.6,30.00,NW,320,3.6,5.4,88,0.00,,,0.00,WSDL version 420,2013-07-02 00:37:00,
2013-07-01 20:42:00,66.1,62.8,30.00,NW,320,3.6,5.4,90,0.00,,,0.00,WSDL version 420,2013-07-02 00:42:00,
2013-07-01 20:47:00,65.8,62.8,30.00,NW,305,3.4,3.4,91,0.00,,,0.00,WSDL version 420,2013-07-02 00:47:00,
2013-07-01 20:57:00,65.1,62.6,30.00,West,275,3.6,3.6,92,0.00,,,0.00,WSDL version 420,2013-07-02 00:57:00,
2013-07-01 21:03:00,64.8,62.5,30.03,West,275,2.5,2.7,93,0.00,,,0.00,WSDL version 420,2013-07-02 01:03:00,
2013-07-01 21:08:00,64.6,62.6,30.03,West,275,2.5,2.7,93,0.05,,,0.05,WSDL version 420,2013-07-02 01:08:00,
2013-07-01 21:18:00,64.2,62.6,30.03,North,0,0.0,1.3,94,0.05,,,0.05,WSDL version 420,2013-07-02 01:18:00,
2013-07-01 21:28:00,64.0,62.9,30.03,West,275,3.8,3.8,97,0.09,,,0.09,WSDL version 420,2013-07-02 01:28:00,
2013-07-01 21:33:00,64.0,63.2,30.03,West,275,3.8,3.8,98,0.09,,,0.09,WSDL version 420,2013-07-02 01:33:00,
2013-07-01 21:43:00,64.1,63.8,30.03,North,-999,-999.0,-999.0,99,0.09,,,0.09,WSDL version 420,2013-07-02 01:43:00,
2013-07-01 21:48:00,64.2,63.9,30.03,North,-999,-999.0,-999.0,99,0.09,,,0.09,WSDL version 420,2013-07-02 01:48:00,
2013-07-01 21:53:00,64.2,63.9,30.03,West,275,3.1,3.1,99,0.09,,,0.09,WSDL version 420,2013-07-02 01:53:00,
2013-07-01 21:58:00,64.2,64.2,30.03,WSW,252,2.7,2.9,100,0.09,,,0.09,WSDL version 420,2013-07-02 01:58:00,
2013-07-01 22:02:00,64.2,64.2,30.03,WSW,252,2.7,2.9,100,0.09,,,0.09,WSDL version 420,2013-07-02 02:02:00,
2013-07-01 22:12:00,64.2,64.2,30.03,SW,230,4.5,5.6,100,0.08,,,0.13,WSDL version 420,2013-07-02 02:12:00,
2013-07-01 22:22:00,64.2,64.2,30.03,West,275,2.2,5.6,100,0.08,,,0.13,WSDL version 420,2013-07-02 02:22:00,
2013-07-01 22:27:00,64.2,64.2,30.03,West,275,2.2,2.7,100,0.04,,,0.13,WSDL version 420,2013-07-02 02:27:00,
2013-07-01 22:32:00,64.2,64.2,30.03,WSW,237,2.5,2.7,100,0.04,,,0.13,WSDL version 420,2013-07-02 02:32:00,
2013-07-01 22:37:00,64.2,64.2,30.03,WNW,290,3.1,4.0,100,0.04,,,0.13,WSDL version 420,2013-07-02 02:37:00,
2013-07-01 22:42:00,64.2,64.2,30.03,WSW,252,3.1,4.0,100,0.04,,,0.13,WSDL version 420,2013-07-02 02:42:00,
2013-07-01 22:52:00,64.0,64.0,30.03,NW,308,2.8,7.4,100,0.08,,,0.17,WSDL version 420,2013-07-02 02:52:00,
2013-07-01 22:57:00,63.9,63.9,30.03,WNW,301,2.2,7.4,100,0.08,,,0.17,WSDL version 420,2013-07-02 02:57:00,
2013-07-01 23:02:00,63.9,63.9,30.03,West,275,3.0,5.6,100,-99.99,,,-99.99,WSDL version 420,2013-07-02 03:02:00,
2013-07-01 23:07:00,63.8,63.8,30.03,NNW,331,3.8,5.6,100,0.08,,,0.21,WSDL version 420,2013-07-02 03:07:00,
2013-07-01 23:17:00,63.5,63.5,30.03,WSW,252,3.4,6.3,100,-99.99,,,-99.99,WSDL version 420,2013-07-02 03:17:00,
2013-07-01 23:22:00,63.5,63.5,30.03,West,270,2.9,7.4,100,0.08,,,0.21,WSDL version 420,2013-07-02 03:22:00,
2013-07-01 23:27:00,63.5,63.5,30.03,West,269,3.4,7.4,100,0.08,,,0.21,WSDL version 420,2013-07-02 03:27:00,
2013-07-01 23:32:00,63.5,63.5,30.03,West,278,3.5,6.5,100,0.08,,,0.21,WSDL version 420,2013-07-02 03:32:00,
2013-07-01 23:37:00,63.5,63.5,30.03,NNW,339,4.3,6.5,100,0.08,,,0.21,WSDL version 420,2013-07-02 03:37:00,
2013-07-01 23:47:00,63.3,63.3,30.03,North,357,3.0,10.1,100,0.08,,,0.25,WSDL version 420,2013-07-02 03:47:00,
2013-07-01 23:52:00,63.3,63.3,30.03,NW,311,4.3,10.1,100,0.12,,,0.29,WSDL version 420,2013-07-02 03:52:00,
2013-07-01 23:57:00,63.3,63.3,30.03,West,271,2.4,6.5,100,0.12,,,0.29,WSDL version 420,2013-07-02 03:57:00,